User: anonymous   Login
Location: Taipo
(41.0000°S, 175.9500°E)
Time: 09:19:18
(UTC+00:00)
Language:

S3M - Orbit

View from above orbital plane
View from above orbital plane
View from above satellite
View from above satellite

Ground track
Ground track

The orbit data is extracted from the following two-line orbital elements,

1 12508U 81053B   24169.95253460  .00000075  00000-0  61055-4 0  9992
2 12508  82.9592  48.2449 0036063 251.9078 107.8149 13.76510628167085
Epoch (UTC): 17 June 2024 22:51:38
Eccentricity: 0.0036063
inclination: 82.9592°
perigee height: 950 km
apogee height: 1003 km
right ascension of ascending node: 48.2449°
argument of perigee: 251.9078°
revolutions per day: 13.76510628
mean anomaly at epoch: 107.8149°
orbit number at epoch: 16708

The dashed part of the orbit path shows where the satellite is in the earth's shadow,  

DLR